Regional Weather Roundup
Issued by NWS State College, PA

Home | Current Version | Previous Version | Graphics & Text | Print | Product List | Glossary Off
Versions: 1 2 3 4 5 6 7 8 9 10 11 12 13 14 15 16 17 18 19 20 21 22 23 24 25 26 27 28 29 30 31 32 33 34 35 36 37 38 39 40 41 42 43 44 45 46 47 48 49 50

000
ASUS41 KCTP 261510
RWRCTP

REGIONAL WEATHER ROUNDUP
NATIONAL WEATHER SERVICE STATE COLLEGE PA
1000 AM EST MON JAN 26 2015

Note: "fair" indicates few or no clouds below 12,000 feet with no
significant weather and/or obstructions to visibility.

* = STATION THAT DOES NOT REPORT PRECIPITATION /E.G. RAIN...SNOW...ETC/
    THUNDER OR FOG.

PAZ002>004-007>009-013>016-020>023-029>032-261600-
WESTERN PENNSYLVANIA

CITY           SKY/WX    TMP DP  RH WIND       PRES   REMARKS
ERIE           LGT SNOW  18  12  77 NE14      29.85S WCI   4
MEADVILLE      LGT SNOW  19  14  81 NE12      29.76R VSB 1   WCI   7
FRANKLIN*      CLOUDY    19  14  79 NE10      29.76R WCI   8
NEW CASTLE     LGT SNOW  21  19  92 N9        29.77R VSB 3/4 WCI  11
BEAVER COUNTY  LGT SNOW  23  21  93 N10       29.72S WCI  12
BUTLER*        CLOUDY    23  19  86 NE10      29.73R WCI  12
PITTSBURGH INT SNOW      26  24  92 N8        29.70R VSB 1/2
PITTSBURGH     SNOW      28  25  88 N6        29.68R VSB 1/4
INDIANA*       FOG       23  21  93 E10G16    29.75S VSB 1   WCI  12
LATROBE        LGT SNOW  30  28  93 E7        29.71R
WASHINGTON CO* CLOUDY    28  27  93 CALM      29.70R VSB 1
$$

PAZ004>006-010>012-017>019-024>028-033>037-041-042-045-046-049>053-261600-
CENTRAL PENNSYLVANIA

CITY           SKY/WX    TMP DP  RH WIND       PRES   REMARKS
BRADFORD       SNOW      14   9  80 E9        29.74S VSB 1/2 WCI   2
DUBOIS         LGT SNOW  18  15  88 E10       29.71S VSB 3/4 WCI   6
CLEARFIELD     LGT SNOW  17  13  84 NE7       29.77S VSB 3/4 WCI   8
JOHNSTOWN      SNOW      21  18  88 E6        29.66S VSB 1/2 WCI  13
ALTOONA        LGT SNOW  21  18  88 NE5       29.76S FOG     WCI  15
STATE COLLEGE  LGT SNOW  16  12  86 NE8       29.81S WCI   5
WILLIAMSPORT   LGT SNOW  20  14  77 CALM      29.90S VSB 3/4
SELINSGROVE    FLURRIES  20  16  84 NW5       29.90R WCI  13
FT INDIANTOWN  CLOUDY    21  16  79 E13       29.89S WCI   9
CAPITAL CITY   CLOUDY    24  19  81 E13       29.88S WCI  12
HARRISBURG     CLOUDY    23  18  81 NE8       29.88S WCI  14
YORK           LGT SNOW  26  23  88 E13       29.84S FOG     WCI  15
$$

PAZ038>040-043-044-047-048-054-055-060>062-067>071-261600-
EASTERN PENNSYLVANIA

CITY           SKY/WX    TMP DP  RH WIND       PRES   REMARKS
SCRANTON       LGT SNOW  20  11  68 NE10G23   29.89S WCI   9
MOUNT POCONO   SNOW      12   8  84 E13       29.84R VSB 1/2 WCI  -3
ALLENTOWN      LGT SNOW  19  13  77 NE14      29.94F WCI   6
QUAKERTOWN*    NOT AVBL
READING        LGT SNOW  22  16  78 N8        29.90F WCI  12
LANCASTER      LGT SNOW  22  18  85 E15       29.87S FOG     WCI   9
COATESVILLE    LGT SNOW  25  23  93 NE8G21    29.85F
POTTSTOWN      LGT SNOW  21  16  81 NE9       29.91F WCI  11
BLUE BELL      CLOUDY    27  21  80 NE7       29.90S
DOYLESTOWN     LGT SNOW  20  17  88 NE10      29.91F FOG     WCI   9
WILLOW GROVE   NOT AVBL
NORTH PHILA    CLOUDY    28  20  71 NE17      29.93S HAZE
PHILADELPHIA   LGT SNOW  28  23  81 NE17G25   29.90F
$$



USA.gov is the U.S. government's official web portal to all federal, state and local government web resources and services.